STARLINK-36128 (66873 NORAD) Tracking and Keplerian Element Data

This shows tracking and keplerian element data for the satellite.

Feedback or suggestion? Click here.




ElementValue
Catalog66873
NameSTARLINK-36128
Epoch Orbit263
Epoch Day354.25003472
Epoch Year2025
RAAN76.2595
Inclination43.0008
Eccentricity0.0001023
Argument of Perigee268.9305
Mean Anonmoly269.0236
Mean Motion15.75437643
Decay Rate-0.01737599
L11 66873U 25281AB 25354.25003472 -.01737599 00000+0 -12616-1 0 9999
L22 66873 43.0008 76.2595 0001023 268.9305 269.0236 15.75437643 2634



Live tracking and technical data element details for STARLINK-36128 (NORAD 66873). STARLINK-36128 can be tracked NOW for your location showing map with azimuth and elevation plus other details from your city location.







IsCatalogInMostPopularTable: catalog: 66873, numindb: 10
Update: records affected: 1



GetName: 66873 STARLINK-36128

Hit Count: updated at: Sun, 08 Feb 2026 17:24:35 GMT